GW1967 Weather Reports


time (UTC)temp
C
wind
direction
speed
KPH
gust
KPH
rain 1hr
cm
rain 24hr
cm
rain mn
cm
humidity
%
barometer
mb
20260506222046 6 10 6.4 9.7 0.05 1.65 1.65 98 1010.0
20260506221544 6 17 6.4 8.0 0.00 1.65 1.65 98 1009.9
20260506221042 6 28 6.4 9.7 0.00 1.65 1.65 98 1009.8
20260506220538 6 16 9.7 11.3 0.00 1.65 1.65 98 1010.0
20260506220034 6 26 4.8 8.0 0.00 1.65 1.65 98 1010.2
20260506215531 6 10 4.8 6.4 0.00 1.65 1.65 98 1010.3
20260506215026 6 7 3.2 9.7 0.00 1.65 1.65 98 1010.2
20260506214523 6 16 6.4 9.7 0.00 1.65 1.65 98 1010.2
20260506214020 6 356 4.8 9.7 0.00 1.65 1.65 98 1010.0
20260506213519 6 11 6.4 8.0 0.00 1.65 1.65 98 1010.0
20260506213015 6 19 6.4 8.0 0.05 1.65 1.65 98 1010.0
20260506212512 6 7 8.0 8.0 0.05 1.65 1.65 98 1009.8
20260506212007 6 2 4.8 9.7 0.00 1.65 1.65 98 1010.0
20260506211503 6 338 8.0 12.9 0.00 1.65 1.65 98 1010.0
20260506211001 6 339 4.8 6.4 0.00 1.65 1.65 98 1009.8
20260506210456 6 10 4.8 8.0 0.05 1.65 1.65 98 1009.9
20260506205954 6 13 9.7 9.7 0.05 1.65 1.65 98 1009.4
20260506205450 6 10 9.7 12.9 0.00 1.63 1.63 98 1009.6
20260506204946 6 8 6.4 9.7 0.00 1.63 1.63 98 1009.6
20260506204444 6 19 8.0 8.0 0.05 1.63 1.63 98 1009.7
20260506203941 6 21 3.2 8.0 0.13 1.63 1.63 98 1009.8
20260506203438 6 10 6.4 9.7 0.18 1.63 1.63 98 1009.6
20260506202935 6 7 4.8 8.0 0.13 1.60 1.60 98 1009.6
20260506202432 6 18 4.8 11.3 0.05 1.60 1.60 98 1009.7
20260506201928 6 16 3.2 8.0 0.00 1.57 1.57 98 1009.7
20260506201426 6 28 4.8 8.0 0.00 1.57 1.57 98 1009.6
20260506200923 6 35 4.8 9.7 0.05 1.57 1.57 98 1009.7
20260506200419 6 313 1.6 9.7 0.05 1.57 1.57 98 1009.8
20260506195915 6 9 4.8 9.7 0.00 1.57 1.57 98 1009.7
20260506195413 6 6 3.2 6.4 0.00 1.57 1.57 98 1009.8
20260506194909 6 350 1.6 6.4 0.00 1.57 1.57 98 1009.7
20260506194406 6 353 6.4 8.0 0.00 1.57 1.57 98 1009.6
20260506193903 6 0 4.8 9.7 0.00 1.57 1.57 98 1009.8
20260506193400 6 352 4.8 11.3 0.05 1.57 1.57 98 1009.6
20260506192857 6 24 3.2 8.0 0.13 1.57 1.57 98 1009.5
20260506192354 6 303 6.4 12.9 0.05 1.55 1.55 98 1009.8
20260506191851 6 306 4.8 11.3 0.05 1.55 1.55 98 1009.5
20260506191347 6 320 3.2 6.4 0.13 1.55 1.55 98 1009.8
20260506190844 6 355 4.8 6.4 0.13 1.55 1.55 98 1009.6
20260506190340 6 48 4.8 6.4 0.13 1.52 1.52 98 1009.5
20260506185837 6 355 4.8 6.4 0.18 1.52 1.52 98 1009.6
20260506185334 6 20 1.6 8.0 0.18 1.50 1.50 98 1009.8
20260506184831 6 13 4.8 6.4 0.13 1.50 1.50 98 1009.8
20260506184328 6 5 6.4 8.0 0.13 1.47 1.47 98 1009.8
20260506183826 6 6 3.2 6.4 0.13 1.47 1.47 97 1009.7
20260506183320 6 5 4.8 9.7 0.13 1.45 1.45 98 1010.0
20260506182818 6 32 4.8 12.9 0.13 1.45 1.45 98 1009.9
20260506182315 6 19 3.2 9.7 0.13 1.45 1.45 97 1009.8
20260506181813 6 351 3.2 19.3 0.05 1.42 1.42 98 1010.0
20260506181311 6 5 3.2 9.7 0.05 1.42 1.42 98 1009.8
20260506180808 6 11 4.8 9.7 0.05 1.42 1.42 97 1010.1
20260506180303 6 0 6.4 8.0 0.05 1.42 1.42 98 1010.3
20260506175800 6 341 6.4 9.7 0.05 1.42 1.42 98 1010.0
20260506175257 6 0 8.0 9.7 0.13 1.40 1.40 97 1010.2
20260506174754 6 6 6.4 9.7 0.05 1.40 1.40 98 1010.3
20260506174252 6 1 4.8 9.7 0.05 1.37 1.37 97 1010.3
20260506173749 6 347 4.8 11.3 0.18 1.37 1.37 98 1010.6
20260506173246 6 13 4.8 9.7 0.23 1.37 1.37 98 1010.6
20260506172742 6 358 6.4 11.3 0.30 1.35 1.35 98 1010.5
20260506172239 6 320 6.4 9.7 0.30 1.32 1.32 97 1010.6
20260506171737 6 358 3.2 11.3 0.30 1.30 1.30 97 1010.6
20260506171234 5 7 6.4 11.3 0.30 1.27 1.27 97 1010.9
20260506170731 5 347 6.4 9.7 0.23 1.24 1.24 97 1010.7
20260506170228 5 322 4.8 9.7 0.23 1.22 1.22 97 1010.5
20260506165726 5 12 9.7 11.3 0.18 1.19 1.19 97 1010.3
20260506165223 5 16 8.0 11.3 0.13 1.19 1.19 97 1010.5
20260506164720 5 5 8.0 8.0 0.13 1.17 1.17 97 1010.7
20260506164217 6 15 6.4 9.7 0.13 1.17 1.17 97 1010.8
20260506163713 6 312 6.4 8.0 0.13 1.14 1.14 97 1010.6
20260506163208 6 13 8.0 8.0 0.13 1.14 1.14 97 1010.7
20260506162705 6 19 6.4 11.3 0.13 1.14 1.14 97 1010.9
20260506162202 6 9 6.4 9.7 0.18 1.12 1.12 97 1010.5
20260506161700 6 5 6.4 11.3 0.18 1.09 1.09 97 1010.8
20260506161156 6 14 8.0 17.7 0.30 1.09 1.09 97 1010.7
20260506160654 6 0 4.8 9.7 0.30 1.07 1.07 97 1010.8
20260506160150 6 17 12.9 14.5 0.23 1.04 1.04 97 1010.8
20260506155649 6 4 8.0 11.3 0.30 1.02 1.02 97 1010.8
20260506155146 6 353 3.2 14.5 0.30 0.91 0.91 97 1011.1
20260506153248 6 12 6.4 8.0 0.30 0.89 0.89 97 1011.2
20260506152745 6 0 6.4 12.9 0.30 0.89 0.89 97 1011.1
20260506152242 6 342 4.8 11.3 0.23 0.86 0.86 96 1011.3
20260506151741 6 1 9.7 11.3 0.30 0.84 0.84 96 1011.1
20260506151237 6 313 4.8 11.3 0.30 0.81 0.81 96 1011.4
20260506150734 6 352 6.4 14.5 0.23 0.79 0.79 96 1011.4
20260506150231 6 316 6.4 11.3 0.30 0.76 0.76 96 1011.2
20260506145728 6 8 4.8 9.7 0.23 0.74 0.74 96 1011.1
20260506145224 6 347 9.7 11.3 0.18 0.71 0.71 96 1011.2
20260506144722 6 348 4.8 8.0 0.18 0.71 0.71 96 1011.0
20260506144219 6 316 3.2 6.4 0.18 0.69 0.69 96 1011.0
20260506143716 6 316 8.0 11.3 0.18 0.66 0.66 96 1010.8
20260506143214 6 356 3.2 8.0 0.18 0.66 0.66 96 1011.0
20260506142712 6 357 1.6 6.4 0.13 0.64 0.64 96 1010.8
20260506142210 6 298 3.2 6.4 0.18 0.61 0.61 96 1011.1
20260506141708 6 347 0.0 6.4 0.13 0.61 0.61 96 1011.0
20260506141206 6 352 6.4 9.7 0.13 0.58 0.58 96 1010.9
20260506140703 6 356 4.8 8.0 0.13 0.58 0.58 96 1011.0
20260506140200 6 337 3.2 12.9 0.13 0.56 0.56 96 1010.9
20260506135657 6 307 3.2 8.0 0.13 0.56 0.56 96 1010.8
20260506135153 6 6 4.8 8.0 0.18 0.56 0.56 96 1010.8
20260506134650 7 1 8.0 8.0 0.18 0.53 0.53 96 1011.0
20260506134146 7 7 3.2 8.0 0.18 0.51 0.51 96 1010.9
20260506133643 -17 6 4.8 6.4 0.18 0.51 0.51 1011.0
20260506133140 -17 313 9.7 16.1 0.13 0.48 0.48 1011.1
20260506132637 -17 321 4.8 17.7 0.13 0.48 0.48 1011.1
20260506132134 -17 11 3.2 11.3 0.13 0.46 0.46 1011.1
20260506131632 -17 349 4.8 8.0 0.13 0.46 0.46 1010.9
20260506131127 -17 7 6.4 8.0 0.13 0.46 0.46 1010.9
20260506130625 -17 10 4.8 6.4 0.18 0.43 0.43 1011.0
20260506130122 -17 4 3.2 9.7 0.18 0.43 0.43 1010.8
20260506125620 -17 12 1.6 16.1 0.13 0.41 0.41 1011.1
20260506125117 -17 357 4.8 11.3 0.13 0.41 0.41 1011.0
20260506124615 -17 12 6.4 16.1 0.18 0.38 0.38 1011.2
20260506124113 -17 7 8.0 9.7 0.18 0.38 0.38 1011.4
20260506123610 -17 300 12.9 14.5 0.18 0.36 0.36 1011.5
20260506123109 -17 318 12.9 12.9 0.23 0.33 0.33 1012.1
20260506122605 -17 8 8.0 24.1 0.30 0.33 0.33 1010.3
20260506122103 -17 276 9.7 24.1 0.18 0.30 0.30 1012.0
20260506121601 -17 21 16.1 27.4 0.13 0.28 0.28 1010.4
20260506121056 -17 307 11.3 24.1 0.13 0.28 0.28 1012.2
20260506120555 -17 10 8.0 12.9 0.13 0.25 0.25 1011.0
20260506120051 -17 358 8.0 8.0 0.13 0.25 0.25 1011.4
20260506115549 -17 4 6.4 9.7 0.13 0.23 0.23 1011.1
20260506115048 -17 2 4.8 9.7 0.13 0.23 0.23 1011.2
20260506114545 -17 1 4.8 8.0 0.05 0.23 0.23 1011.1
20260506114043 -17 8 4.8 9.7 0.00 0.20 0.20 1011.3
20260506113541 -17 10 4.8 8.0 0.00 0.20 0.20 1011.2
20260506113038 -17 27 3.2 6.4 0.00 0.20 0.20 1011.4
20260506112534 -17 14 8.0 9.7 0.00 0.20 0.20 1011.3
20260506112032 -17 39 3.2 8.0 0.05 0.20 0.20 1011.1
20260506111530 -17 3 1.6 8.0 0.05 0.20 0.20 1011.1
20260506111026 -17 8 8.0 9.7 0.00 0.20 0.20 1010.9
20260506110524 -17 16 3.2 22.5 0.00 0.20 0.20 1010.9
20260506110021 -17 292 0.0 9.7 0.00 0.20 0.20 1011.0
20260506105517 -17 8 6.4 9.7 0.05 0.20 0.20 1011.0
20260506105015 -17 10 4.8 19.3 0.05 0.20 0.20 1011.1
20260506104513 -17 13 6.4 11.3 0.00 0.18 0.18 1010.8
20260506104010 -17 22 8.0 9.7 0.00 0.18 0.18 1010.6
20260506103507 -17 17 9.7 14.5 0.05 0.18 0.18 1010.6
20260506103004 -17 5 8.0 12.9 0.05 0.18 0.18 1010.7
20260506102502 -17 16 4.8 14.5 0.00 0.18 0.18 1010.6
20260506101959 -17 8 9.7 11.3 0.00 0.18 0.18 1010.6
20260506101455 -17 9 6.4 9.7 0.00 0.18 0.18 1010.3
20260506100953 -17 20 9.7 11.3 0.00 0.18 0.18 1010.4
20260506100451 -17 19 8.0 8.0 0.00 0.18 0.18 1010.4
20260506095949 -17 20 4.8 14.5 0.00 0.18 0.18 1010.1
20260506095447 -17 27 9.7 9.7 0.00 0.18 0.18 1010.6
20260506094943 -17 23 9.7 17.7 0.05 0.18 0.18 1010.2
20260506094442 -17 31 14.5 16.1 0.05 0.18 0.18 1010.4
20260506093939 -17 4 3.2 6.4 0.00 0.18 0.18 1010.8
20260506093437 -17 31 11.3 16.1 0.13 0.18 0.18 1010.3
20260506092934 -17 45 11.3 17.7 0.79 0.18 0.18 1010.4
20260506092432 -17 47 9.7 12.9 0.66 0.15 0.15 1010.7
20260506091928 -17 275 4.8 9.7 0.00 0.05 0.05 1011.9
20260506091427 -17 21 6.4 12.9 0.00 0.05 0.05 1010.4
20260506090924 -17 35 16.1 24.1 0.00 0.05 0.05 1010.0
20260506090421 -17 21 6.4 8.0 0.00 0.05 0.05 1010.7
20260506085918 -17 27 11.3 19.3 0.00 0.05 0.05 1010.4
20260506085414 -17 36 9.7 12.9 0.00 0.05 0.05 1010.7
20260506084911 -17 0 6.4 9.7 0.00 0.05 0.05 1010.6
20260506084408 -17 13 4.8 14.5 0.00 0.05 0.05 1010.2
20260506083904 -17 18 6.4 22.5 0.00 0.05 0.05 1010.4
20260506083401 -17 29 17.7 20.9 0.00 0.05 0.05 1010.4
20260506082859 -17 351 3.2 8.0 0.00 0.05 0.05 1010.8
20260506082355 -17 36 6.4 17.7 0.00 0.05 0.05 1010.3
20260506081851 -17 17 8.0 12.9 0.00 0.05 0.05 1010.4
20260506081350 -17 21 6.4 9.7 0.00 0.05 0.05 1010.4
20260506080847 -17 17 8.0 9.7 0.00 0.05 0.05 1010.5
20260506080343 -17 17 6.4 6.4 0.00 0.05 0.05 1010.8
20260506073328 -17 39 6.4 6.4 0.13 0.03 0.03 1010.5
20260506072824 -17 259 6.4 12.9 0.00 0.00 0.00 1011.3
20260506072322 -17 29 4.8 9.7 0.00 0.00 0.00 1009.8
20260506071820 -17 20 3.2 4.8 0.00 0.00 0.00 1010.0
20260506071317 -17 27 4.8 4.8 0.00 0.00 0.00 1010.1
20260506070814 -17 344 3.2 4.8 0.00 0.00 0.00 1010.2
20260506070311 -17 44 0.0 4.8 0.00 0.00 0.00 1010.1
20260506062248 -17 16 0.0 4.8 0.00 0.00 0.00 1010.3
20260506061744 -17 143 3.2 4.8 0.00 0.00 0.00 1010.5
20260506061241 -17 311 4.8 8.0 0.00 0.00 0.00 1009.7
20260506060740 -17 350 0.0 3.2 0.00 0.00 0.00 1010.0
20260506060237 -17 329 1.6 4.8 0.00 0.00 0.00 1009.9
20260506051203 -17 246 3.2 8.0 0.00 0.00 0.00 1010.5
20260506050701 -17 199 6.4 11.3 0.00 0.00 0.00 1010.5
20260506050158 -17 184 9.7 11.3 0.00 0.00 0.00 1010.3
20260506044649 -17 183 4.8 4.8 0.00 0.00 0.00 1010.6
20260506044145 -17 153 1.6 6.4 0.00 0.00 0.00 1010.7
20260506043643 -17 68 4.8 9.7 0.00 0.00 0.00 1010.4
20260506043141 -17 137 0.0 6.4 0.00 0.00 0.00 1010.2
20260506042640 -17 81 6.4 8.0 0.00 0.00 0.00 1009.8
20260506042137 -17 113 6.4 9.7 0.00 0.00 0.00 1009.9
20260506041636 -17 127 4.8 8.0 0.00 0.00 0.00 1009.9
20260506041132 -17 128 6.4 9.7 0.00 0.00 0.00 1009.8
20260506040630 -17 121 6.4 12.9 0.00 0.00 0.00 1010.4
20260506040126 -17 82 6.4 9.7 0.00 0.00 0.00 1009.9
20260506035623 -17 87 8.0 9.7 0.05 0.28 0.28 1009.5
20260506035120 -17 74 8.0 11.3 0.05 0.28 0.28 1009.7
20260506034617 -17 49 9.7 14.5 0.00 0.25 0.25 1009.5
20260506034114 -17 99 4.8 9.7 0.00 0.25 0.25 1010.2
20260506033611 -17 105 8.0 12.9 0.00 0.25 0.25 1010.0
20260506033108 -17 97 12.9 16.1 0.05 0.25 0.25 1009.9
20260506032606 -17 123 6.4 11.3 0.18 0.25 0.25 1010.0
20260506032102 -17 104 9.7 9.7 0.30 0.25 0.25 1010.0
20260506031600 -17 47 3.2 4.8 0.13 0.23 0.23 1009.9
20260506031056 -17 28 3.2 8.0 0.00 0.20 0.20 1009.7
20260506030555 -17 31 8.0 11.3 0.00 0.20 0.20 1009.5
20260506030052 -17 27 6.4 9.7 0.00 0.20 0.20 1009.8
20260506025549 -17 25 6.4 8.0 0.00 0.20 0.20 1009.5
20260506025044 -17 303 8.0 14.5 0.00 0.20 0.20 1009.6
20260506024542 -17 299 1.6 4.8 0.00 0.20 0.20 1009.2
20260506024038 -17 173 3.2 9.7 0.00 0.20 0.20 1009.0
20260506023534 -17 178 6.4 8.0 0.00 0.20 0.20 1008.9
20260506023032 -17 164 8.0 11.3 0.00 0.20 0.20 1008.8
20260506022529 -17 166 6.4 8.0 0.00 0.20 0.20 1008.8
20260506022027 -17 157 6.4 12.9 0.00 0.20 0.20 1008.8
20260506021524 -17 156 11.3 14.5 0.00 0.20 0.20 1008.7
20260506021021 -17 154 8.0 11.3 0.00 0.20 0.20 1008.6
20260506020519 -17 157 8.0 11.3 0.00 0.20 0.20 1008.6
20260506020016 -17 159 11.3 12.9 0.00 0.20 0.20 1008.8
20260506015513 -17 157 8.0 14.5 0.00 0.20 0.20 1008.4
20260506015010 -17 133 14.5 14.5 0.00 0.20 0.20 1008.3
20260506014508 -17 123 8.0 9.7 0.00 0.20 0.20 1008.2
20260506014003 -17 145 6.4 8.0 0.00 0.20 0.20 1008.3
20260506013501 -17 143 4.8 8.0 0.00 0.20 0.20 1008.3
20260506012957 -17 166 6.4 6.4 0.00 0.20 0.20 1008.2
20260506012454 -17 214 3.2 6.4 0.00 0.20 0.20 1008.4
20260506011951 -17 235 4.8 8.0 0.00 0.20 0.20 1008.3
20260506011448 -17 227 4.8 6.4 0.00 0.20 0.20 1008.5
20260506010945 -17 209 3.2 6.4 0.00 0.20 0.20 1008.3
20260506010444 -17 203 3.2 8.0 0.00 0.20 0.20 1008.1
20260506005939 -17 131 6.4 12.9 0.00 0.20 0.20 1007.3
20260506005438 -17 110 11.3 16.1 0.00 0.20 0.20 1007.1
20260506004932 -17 153 12.9 14.5 0.00 0.20 0.20 1007.6
20260506004431 -17 169 9.7 11.3 0.00 0.20 0.20 1007.7
20260506003926 -17 165 8.0 9.7 0.00 0.20 0.20 1007.6
20260506003423 -17 158 8.0 9.7 0.00 0.20 0.20 1007.3
20260506002920 -17 155 8.0 9.7 0.00 0.20 0.20 1007.2
20260506002416 -17 155 9.7 12.9 0.00 0.20 0.20 1007.1
20260506001911 -17 154 9.7 12.9 0.00 0.20 0.20 1007.2
20260506001409 -17 156 12.9 17.7 0.00 0.20 0.20 1007.2
20260506000906 -17 152 16.1 17.7 0.00 0.20 0.20 1007.3
20260506000403 -17 159 11.3 17.7 0.00 0.20 0.20 1007.2
20260505235900 -17 156 14.5 17.7 0.00 0.20 0.20 1007.2
20260505235358 -17 146 9.7 12.9 0.00 0.20 0.20 1007.0
20260505234854 -17 149 9.7 12.9 0.00 0.20 0.20 1007.1
20260505234352 -17 142 9.7 12.9 0.00 0.20 0.20 1007.0
20260505233849 -17 134 9.7 11.3 0.00 0.20 0.20 1007.1
20260505233347 -17 157 8.0 8.0 0.00 0.20 0.20 1007.0
20260505232844 -17 177 6.4 9.7 0.00 0.20 0.20 1007.1
20260505232342 -17 183 6.4 6.4 0.00 0.20 0.20 1006.9
20260505231838 -17 191 6.4 11.3 0.00 0.20 0.20 1007.0
20260505231336 -17 176 8.0 11.3 0.00 0.20 0.20 1006.9
20260505230834 -17 182 8.0 11.3 0.00 0.20 0.20 1006.8
20260505230330 -17 185 9.7 12.9 0.00 0.20 0.20 1006.7
20260505225827 -17 168 9.7 14.5 0.00 0.20 0.20 1006.7
20260505225325 -17 178 11.3 16.1 0.00 0.20 0.20 1006.9
20260505224819 -17 175 11.3 14.5 0.00 0.20 0.20 1006.7
20260505224318 -17 180 12.9 17.7 0.00 0.20 0.20 1006.9
20260505223814 -17 183 14.5 16.1 0.00 0.20 0.20 1006.8
20260505223312 -17 183 14.5 16.1 0.00 0.20 0.20 1006.9
20260505222807 -17 185 14.5 16.1 0.00 0.20 0.20 1006.8